Voltar ao catálogo

ARIANE 5 DEB

SYLDA

AtivoGTO
NORAD 32255·DEBRIS·🇫🇷 France

Lançado Oct 5, 2007 de Guiana Space Centre

Loading…

TLE

EnvelhecendoSource: Space-Track

Época: Sep 14, 2026, 18:47 UTC

1 32255U 07044D   26257.78290097 -.00000095  00000-0 -22105-3 0  9995
2 32255   4.7055  21.9754 7160544  38.2014 199.3557  2.26831810156533

Acompanhe ARIANE 5 DEB em tempo real com AllMySat

Download on the App Store